Regional Weather Roundup
Issued by NWS Wakefield, VA

Home | Current Version | Previous Version | Text Only | Print | Product List | Glossary Off
Versions: 1 2 3 4 5 6 7 8 9 10 11 12 13 14 15 16 17 18 19 20 21 22 23 24 25 26 27 28 29 30 31 32 33 34 35 36 37 38 39 40 41 42 43 44 45 46 47 48 49 50

000
ASUS41 KAKQ 141015
RWRAKQ

REGIONAL WEATHER ROUNDUP
NATIONAL WEATHER SERVICE WAKEFIELD VA
500 AM EST SUN FEB 14 2016

Note: "fair" indicates few or no clouds below 12,000 feet with no
significant weather and/or obstructions to visibility. * = Denotes
station may not report precipitation (e.g., rain,snow,etc.),
thunder or fog.

VAZ042-051-052>054-056-141100-
NORTHERN VIRGINIA

CITY           SKY/WX    TMP DP  RH WIND       PRES   REMARKS
WASH NATIONAL  FAIR      14  -3  47 W10       30.52R WCI   1
DULLES         FAIR       9  -3  58 NW5       30.49R
FORT BELVOIR   FAIR      12  -3  51 W7        30.52R
QUANTICO       FAIR      14  -2  49 VRB6      30.55R
FREDERICKSBRG* FAIR       9   2  72 CALM      30.52R
STAFFORD*      FAIR       6   0  78 CALM      30.56R
WARRENTON      FAIR       9   4  80 CALM      30.50R
CULPEPER*      FAIR       6   2  84 CALM      30.51R
MANASSAS*      FAIR      12   1  62 CALM      30.51R
LEESBURG*      FAIR      12   3  67 W6        30.49R
WINCHESTER     FAIR      10   1  67 NW8       30.44R
FRONT ROYAL*   PTSUNNY   12   0  57 CALM      30.45R
LURAY*         FAIR      12  -2  52 NW5       30.44R
$$

VAZ048-049-060>072-079>083-141100-
CENTRAL AND SOUTH CENTRAL VIRGINIA

CITY           SKY/WX    TMP DP  RH WIND       PRES   REMARKS
RICHMOND       FAIR      12  -2  53 N5        30.52R
CHESTERFIELD*  FAIR       9  -9  43 CALM      30.53R
PETERSBURG*    FAIR      13  -2  51 CALM      30.53R
HANOVER        FAIR       8   1  73 CALM      30.53R
TAPPAHANNOCK*  FAIR      14  -3  48 CALM      30.52R
QUINTON*       FAIR      10  -1  60 CALM      30.52R
CHARLOTTSVILLE FAIR       9  -4  55 SW3       30.48R
GORDONSVILLE*  FAIR       9   0  66 W3        30.49R
ORANGE*        FAIR      10   1  67 CALM      30.51R
LOUISA*        FAIR       3   0  85 CALM      30.48R
BUMPASS*       FAIR       7  -1  70 CALM      30.50R
FARMVILLE*     FAIR       9   3  75 CALM      30.49S
CREWE*         FAIR      11  -3  52 CALM      30.50R
FORT PICKETT*  FAIR      11  -3  54 MISG      30.49R
CHASE CITY*    FAIR      12  -2  53 CALM      30.49R
CLARKSVILLE*   FAIR      16  -2  45 CALM      30.50R
SOUTH HILL*    FAIR      12  -2  53 CALM      30.55R
LAWRENCEVILLE* FAIR      13  -2  52 N3        30.50R
EMPORIA*       FAIR      14   0  52 CALM      30.54R
$$

VAZ088>098-141100-
SOUTHEAST VIRGINIA

CITY           SKY/WX    TMP DP  RH WIND       PRES   REMARKS
NORFOLK        FAIR      18  -3  39 NW9G23    30.50R
VIRGINIA BEACH FAIR      20  -2  38 N20G25    30.49R WCI   4
NORFOLK NAVAL  FAIR      18  -2  41 N16G28    30.52R WCI   3
WEST POINT*    FAIR      14  -2  48 NW5       30.54R
SALUDA*        FAIR      15  -2  45 NW13G21   30.51R WCI   2
NEWPORT NEWS   FAIR      15  -3  44 N10       30.52R WCI   2
LANGLEY AFB    FAIR      16  -6  38 NW18G25   30.50R WCI  -1
FORT EUSTIS    FAIR      16  -1  45 N12G21    30.50R WCI   3
WILLIAMSBURG*  FAIR      18   1  49 N10       30.53R WCI   6
HR EXEC AP*    FAIR      18  -4  38 N10G16    30.52R WCI   6
FRANKLIN*      FAIR      14  -1  51 CALM      30.54R
US460-WAKEFLD  FAIR      15  -2  46 N3        30.53R
$$

VAZ020-022-025-037-045-141100-
WEST CENTRAL AND SOUTHWEST VIRGINIA

CITY           SKY/WX    TMP DP  RH WIND       PRES   REMARKS
STAUNTON*      FAIR      10   1  68 SW3       30.44R
WAYNESBORO*    FAIR       7  -7  54 CALM      30.40R
HOT SPRINGS VA FAIR       0  -7  74 NW10G17   30.11F WCI -17
LYNCHBURG      FAIR       7  -1  70 CALM      30.46S
DANVILLE       FAIR      16  -1  47 N7        30.49R
SOUTH BOSTON*  FAIR      12   0  58 N5        30.50R
MARTINSVILLE   FAIR      13  -2  51 N3        30.48R
ROANOKE        FAIR      11  -3  53 N7        30.45S
BLACKSBURG     FAIR       7  -1  70 CALM      30.37S
DUBLIN*        FAIR       8  -1  69 CALM      30.35F
MARION*        FAIR       9   1  68 CALM      30.32S
HILLSVILLE*    FAIR       8  -2  63 N6        30.25F
RICHLANDS*     FAIR       8  -4  58 CALM      30.29R
WISE*          MOCLDY    12  -4  48 NE3       30.30R
ABINGDON*      FAIR      14   0  53 E5        30.35R
$$

MDZ021>025-VAZ099-100-141100-
SOUTHERN MARYLAND AND THE DELMARVA PENINSULA

CITY           SKY/WX    TMP DP  RH WIND       PRES   REMARKS
PATUXENT RIVER CLEAR     14  -3  47 W10G22    30.50R WCI   1
BAY BRIDGE APT   N/A     14  -4  44 W9G17     30.49R
LEONARDTOWN    CLEAR     12  -4  48 MISG      30.51
DOVER          CLEAR     13  -5  46 NW15      30.45R WCI  -3
GEORGETOWN     CLEAR     13  -6  42 NW6       30.47R
EASTON         CLEAR     14   0  52 NW12G17   30.52R WCI   1
CAMBRIDGE      CLEAR     14  -4  44 NW14G25   30.48R WCI  -1
SALISBURY      CLEAR     13  -2  51 NW8       30.47R
OCEAN CITY     CLEAR     13  -4  46 NW9       30.47R
WALLOPS ISLAND FAIR      14  -2  49 NW10      30.48R WCI   1
ACCOMACK*      CLOUDY    18   0  45 NW16G26   30.48R WCI   3
$$

NCZ012>017-030>032-141100-
NORTH CENTRAL AND EASTERN NORTH CAROLINA

CITY           SKY/WX    TMP DP  RH WIND       PRES   REMARKS
ROANOKE RAPIDS FAIR      14   3  62 CALM      30.52R
RALEIGH        PTCLDY    16  -1  47 VRB3      30.49R
ELIZABETH CITY CLEAR     17   1  49 N14       30.51R WCI   3
AHOSKIE*       PTCLDY    15   0  51 N3        30.53R
EDENTON*       CLEAR     17   4  56 N7        30.52R
CURRITUCK*     CLEAR     18  -1  42 N13G23    30.51R WCI   5
KILL DEVIL HLS CLEAR     19   4  52 NW9G17    30.46R
MANTEO         CLEAR     20   5  52 N14G24    30.48R WCI   7
CAPE HATTERAS  CLEAR     24  10  55 N9        30.45R
TARBORO*       FAIR      17   3  55 CALM      30.54R
GOLDSBORO      PTCLDY    19   0  42 N6        30.48R
WASHINGTON     CLEAR     18   0  45 NE8       30.51R
GREENVILLE     CLEAR     18   5  57 NE8       30.51R
NEW BERN       CLEAR     20   1  43 NE13      30.50R WCI   7
WILMINGTON     CLEAR     23   3  42 N7        30.47R
$$

VAZ048-141100-
ELSEWHERE

CITY           SKY/WX    TMP DP  RH WIND       PRES   REMARKS
HARRISBURG PA  PTCLDY    10  -4  53 NW14      30.43R WCI  -6
BALTIMORE      PTCLDY    10  -3  55 W8        30.48R
ANNAPOLIS      CLEAR     12  -2  53 W5        30.50R
ANDREWS AFB    FAIR      12  -3  51 W10       30.48R WCI  -1
PHILADELPHIA   PTCLDY    10 -10  40 NW16      30.45R WCI  -7
HENDERSON NC   CLEAR     14  -2  50 CALM      30.49R
GREENSBORO     CLOUDY    17  -1  45 NE7       30.43R
ROCKY MOUNT    CLEAR     16   2  54 N8        30.52R
$$

VAZ100-141100-
MARINE

STATION/POSITION TIME  TEMP    WIND        PRES    WAVE   SWELL
                       AIR SEA DIR/SP/G            HT/PER HT/PER
                 (UTC) (F)     (DEG/KT/KT) (MB)    (FT/S) (FT/S)
BRANDYWINE LGT   0900   15     330/ 22/ 35 1029.5R
CAPE MAY NJ      0900   15 32  330/ 15/ 28 1029.4R
LEWES DE         0900   15 32  310/ 22/ 25 1030.2R
15NM E FENWICK I 0950   18 43              1030.5R   6/ 6
OCEAN-CITY-INLET 0900   15 38  340/ 10/ 12 1030.0R
WACHAPREAGUE VA  0900   17 30  320/  5/ 15 1031.2R
THOMAS POINT MD  1000   14 35  300/ 13/ 15 1033.5R
GOOSES REEF MD   1000   16 36  310/ 16/ 19 1033.7R   2/ 4
COVE POINT MD    0900   14     330/ 10/ 22 1032.6R
SOLOMONS ISLAND  0900   15 37  330/ 18/ 22   N/A
BISHOPS HEAD MD  0900   15 30  320/ 17/ 22 1031.0R
PINEY POINT MD   0900          340/ 22/ 25   N/A
POTOMAC MD       1000   17 36  340/ 17/ 25 1031.9R   2/ 3
CAMBRIDGE MD     0900   16 33  320/ 17/ 24 1030.7R
LEWISETTA VA     0900   17 33  340/ 11/ 15 1032.1R
RAPPAHANNOCK LGT 0900          330/ 27/ 33 1031.4R
STINGRAY PT      1000   17 37  330/ 17/ 21 1032.9R   2/ 3
YORK RVR RNG VA  0900   18     340/ 22/ 27 1031.2R
YORKTOWN VA      0900   18 38  340/ 14/ 23 1032.2R
JAMESTOWN VA     1000   15 39  350/  8/ 12   N/A     0
DOMINION TERM VA 0900   18     350/  6/ 16 1032.3R
KIPTOPEKE VA     0900      36   10/ 16/ 22   N/A
CHES BAY BRIDGE  0900   19 39  320/ 23/ 29 1031.3R
CAPE HENRY VA    0900   18     330/ 24/ 29   N/A
CHESAPEAKE LGHT  0900   19     340/ 23/ 28 1031.4R
WILLOUBY STN VA  0900   18     340/ 22/ 28 1032.8R
1ST LANDING BUOY 1000      40                N/A     4/ 3
CAPE CHARLES BUO 0956      41                N/A     4/ 5   2/12
OFFSHORE WE BUOY 0921      45                N/A     6/ 6   2/14
64NM E OF VA BCH 0950   24 50  340/ 23/ 31 1029.6R   8/ 8   2/12
DUCK PIER NC     0900   20     330/ 22/ 27 1029.9R
44100 DUCK FRF   0924      44                N/A     8/ 7
44056 DUCK FRF   0911      41                N/A     6/ 6
OREGON INLET NC  0900   22 39  330/ 17/ 21 1030.2R
HATTERAS NC      0900   25 40  350/ 24/ 28 1029.7R
DIAMOND SHLS NC  0950   30 72  360/ 23/ 29 1029.8R   6/ 8   2/10
$$



USA.gov is the U.S. government's official web portal to all federal, state and local government web resources and services.